Location: Ch�risy
(50.2331°N, 2.9131°E)
Time: 19:48:37
(UTC+00:00)

H-2A R/B - Pass Details

Date: 17 January 2021
Orbit: 504 x 534 km, 97.3° (Epoch: 25 February)

Event Time Altitude Azimuth Distance (km) Brightness Sun altitude
Rises 16:49:08 0° 181° (S) 2,610 6.7 -5.3°
Reaches altitude 10° 16:51:17 10° 188° (S) 1,726 5.9 -5.6°
Maximum altitude 16:54:51 44° 261° (W) 717 4.1 -6.1°
Drops below altitude 10° 16:58:26 10° 335° (NNW) 1,731 5.4 -6.6°
Sets 17:00:36 0° 342° (NNW) 2,620 6.2 -6.9°
